Location: Karcze
(52.0945°N, 22.4786°E)
Time: 00:24:12
(UTC+00:00)

A-11 Canister half - Pass Details

Date: 05 August 2021
Orbit: 1515 x 1685 km, 47.2° (Epoch: 19 September)

Event Time Altitude Azimuth Distance (km) Brightness Sun altitude
Rises 19:29:12 0° 282° (WNW) 4,869 12.7 -10.1°
Reaches altitude 10° 19:32:26 10° 277° (W) 3,901 12.0 -10.5°
Maximum altitude 19:41:51 48° 208° (SSW) 2,096 9.6 -11.5°
Enters shadow 19:50:02 15° 141° (SE) 3,559 10.2 -12.3°
Drops below altitude 10° 19:51:23 10° 138° (SE) 3,944 - -12.5°
Sets 19:54:41 0° 133° (SE) 4,927 - -12.8°
